Location: Lynch Observatory
(39.9540°N, 75.1861°W)
Time: 11:18:05
(UTC-04:00)

UWE-3 - Pass Details

Date: 25 April 2024
Orbit: 569 x 652 km, 97.8° (Epoch: 25 May)

Event Time Altitude Azimuth Distance (km) Brightness Sun altitude
Rises 04:12:05 0° 2° (N) 2,868 ? -20.3°
Reaches altitude 10° 04:14:23 10° 353° (N) 1,974 ? -19.9°
Maximum altitude 04:18:15 34° 289° (WNW) 1,035 ? -19.4°
Enters shadow 04:18:36 33° 279° (W) 1,046 ? -19.3°
